Voltar ao catálogo

DELTA 1 DEB

AtivoLEO
NORAD 10306·DEBRIS·🇺🇸 United States

Lançado Jul 14, 1977 de Cape Canaveral Space Force Station

Loading…

Próximas Passagens (próximas 24 horas)

TLE

AtualizadoSource: Space-Track

Época: Sep 14, 2026, 12:06 UTC

1 10306U 77065DC  26257.50443890  .00002915  00000-0  69608-3 0  9999
2 10306  29.1099 353.4042 0650969 211.9486 143.9972 13.68397780403283

Acompanhe DELTA 1 DEB em tempo real com AllMySat

Download on the App Store